Date,TemperatureHighF,TemperatureAvgF,TemperatureLowF,DewpointHighF,DewpointAvgF,DewpointLowF,HumidityHigh,HumidityAvg,HumidityLow,PressureMaxIn,PressureMinIn,WindSpeedMaxMPH,WindSpeedAvgMPH,GustSpeedMaxMPH,PrecipitationSumIn
2013-1-1,31.9,22.4,9.3,23.6,3.7,-11.7,92,48,26,29.25,29.01,36,8,36,0.00
2013-1-2,24.2,11.2,0.7,-0.6,-9.1,-19.7,63,41,21,29.42,29.22,31,6,31,0.00
2013-1-3,24.4,9.8,-0.2,-2.8,-10.5,-16.7,69,42,19,29.45,29.30,20,4,20,0.00
2013-1-4,35.2,24.3,8.6,18.9,13.0,-2.4,99,65,37,29.32,29.12,21,4,21,0.00
2013-1-5,35.7,28.1,17.9,22.8,8.8,-2.6,77,47,23,29.62,29.14,29,6,29,0.00
2013-1-6,39.2,26.9,16.4,25.6,16.3,7.1,92,66,37,29.59,29.29,14,2,14,0.00
2013-1-7,35.5,26.4,16.8,29.2,13.1,-3.7,100,62,27,29.75,29.31,13,2,13,0.00
2013-1-8,42.7,30.4,18.1,17.3,12.0,3.2,81,49,24,29.74,29.59,24,5,24,0.00
2013-1-9,40.7,31.8,21.9,28.9,20.3,12.0,99,65,34,29.78,29.31,20,2,20,0.00
2013-1-10,42.1,35.5,25.4,34.0,17.0,9.4,100,50,27,29.91,29.33,26,8,34,0.02
2013-1-11,41.2,30.5,22.9,32.3,19.9,5.2,100,70,26,29.90,29.62,10,2,10,0.08
2013-1-12,42.5,37.1,32.4,42.5,37.1,32.4,100,100,100,29.62,29.49,10,1,10,0.08
2013-1-13,44.7,40.1,35.9,44.7,40.1,35.9,100,100,100,29.54,29.34,14,2,14,0.00
2013-1-14,57.2,43.8,32.2,53.6,33.3,15.1,100,71,34,29.61,29.23,25,4,25,0.01
2013-1-15,45.7,32.4,23.7,25.7,13.6,5.2,98,49,25,29.69,29.60,13,2,13,0.00
2013-1-16,29.1,26.9,25.2,28.4,23.2,10.2,100,88,48,29.64,29.16,11,2,11,0.00
2013-1-17,43.9,28.8,16.9,27.7,12.8,-15.7,100,57,21,29.49,29.16,21,5,21,0.22
2013-1-18,18.4,13.0,4.6,-10.8,-22.5,-34.3,33,19,9,29.76,29.43,25,4,25,0.00
2013-1-19,41.9,29.6,11.6,15.7,3.6,-11.9,46,33,21,29.70,29.22,19,5,19,0.01
2013-1-20,47.6,34.7,20.6,28.2,10.0,-17.2,83,40,13,29.25,28.85,38,8,38,0.00
2013-1-21,25.2,18.7,9.4,14.7,-10.5,-25.6,98,33,11,29.41,29.16,33,4,33,0.00
2013-1-22,25.4,13.7,3.4,14.7,-3.9,-19.3,97,51,16,29.39,29.13,28,5,28,0.00
2013-1-23,4.8,0.1,-5.4,-16.4,-29.7,-37.7,45,24,13,29.46,29.37,27,5,27,0.00
2013-1-24,11.1,2.3,-6.6,-23.5,-29.5,-34.1,29,21,12,29.50,29.33,31,8,31,0.00
2013-1-25,18.2,8.9,0.9,-18.0,-20.6,-24.6,39,25,15,29.58,29.41,25,6,25,0.00
2013-1-26,21.9,12.7,2.5,-4.5,-15.8,-25.9,68,29,12,29.51,29.35,20,4,20,0.00
2013-1-27,22.9,14.6,6.5,-12.7,-18.6,-27.6,39,22,13,29.79,29.50,24,6,24,0.00
2013-1-28,28.2,18.2,10.7,18.0,-8.9,-29.7,99,42,7,29.78,29.42,14,2,14,0.00
2013-1-29,37.4,26.6,17.9,30.7,23.1,17.3,100,88,53,29.58,29.42,7,2,7,0.12
2013-1-30,53.7,40.5,30.6,53.7,40.5,30.5,100,100,100,29.53,28.83,22,4,22,0.38
2013-1-31,56.4,42.9,25.9,56.4,27.8,-5.9,100,64,22,28.86,28.27,39,11,39,0.54
2013-2-1,27.2,20.9,12.3,10.7,-3.9,-12.0,60,34,21,29.40,28.86,28,8,28,0.00
2013-2-2,26.4,17.8,8.9,21.6,-5.8,-12.9,100,36,19,29.55,29.40,19,4,19,0.00
2013-2-3,25.9,21.0,13.3,16.4,6.6,-0.3,97,57,33,29.41,29.07,14,3,14,0.00
2013-2-4,27.1,20.4,11.3,14.8,-5.3,-20.9,87,38,13,29.25,29.05,29,6,29,0.00
2013-2-5,27.2,15.6,6.2,-0.5,-12.3,-18.0,50,29,14,29.38,29.24,17,3,17,0.00
2013-2-6,36.2,23.1,14.0,18.8,4.6,-26.3,95,51,13,29.65,29.30,20,4,20,0.01
2013-2-7,23.0,15.6,8.3,-11.0,-21.9,-30.9,29,18,8,29.90,29.63,16,3,16,0.00
2013-2-8,14.6,11.5,8.0,11.1,2.3,-24.3,96,72,17,29.89,29.19,31,6,31,0.00
2013-2-9,20.0,14.5,10.5,14.8,5.4,-6.3,97,71,42,29.51,29.05,39,14,39,0.00
2013-2-10,36.9,21.4,5.9,-5.3,-14.9,-23.2,51,23,7,29.74,29.51,18,3,19,0.00
2013-2-11,31.9,24.4,16.2,31.8,10.6,-17.9,100,67,17,29.70,28.97,10,1,10,0.05
2013-2-12,45.7,36.5,30.8,33.9,24.9,16.1,100,66,33,29.19,28.92,27,6,27,0.37
2013-2-13,42.0,33.1,26.2,21.1,12.5,4.7,67,45,24,29.22,29.11,19,4,19,0.00
2013-2-14,41.4,32.0,24.8,20.4,10.7,3.3,74,44,23,29.37,29.09,14,3,14,0.00
2013-2-15,50.2,35.0,21.3,26.4,17.3,10.0,100,55,21,29.36,29.27,17,3,17,0.00
2013-2-16,41.7,33.0,25.4,31.6,16.7,-3.9,100,56,27,29.34,29.13,17,3,17,0.05
2013-2-17,25.4,18.4,12.0,16.4,-0.7,-11.7,89,47,21,29.14,28.67,39,11,39,0.00
2013-2-18,27.5,17.4,7.5,-9.6,-16.4,-27.6,42,23,10,29.44,28.89,45,10,45,0.00
2013-2-19,42.7,31.9,16.6,38.9,-1.9,-30.4,100,39,4,29.48,28.94,13,3,16,0.35
2013-2-20,35.8,29.5,21.4,33.4,16.5,4.6,100,62,33,29.08,28.85,24,8,29,0.01
2013-2-21,28.0,22.9,16.8,13.6,3.7,-5.9,76,45,25,29.56,29.05,27,8,27,0.00
2013-2-22,41.4,30.8,18.5,18.6,9.6,1.5,81,45,20,29.77,29.55,13,4,16,0.00
2013-2-23,35.5,30.8,27.0,33.3,25.4,17.8,100,81,56,29.72,29.36,8,1,8,0.01
2013-2-24,30.9,29.1,26.4,30.9,29.1,26.4,100,100,100,29.37,29.14,0,0,0,0.00
2013-2-25,44.6,32.8,25.9,33.6,27.8,21.5,100,85,44,29.62,29.28,8,1,8,0.42
2013-2-26,43.2,34.0,28.5,34.0,27.6,21.6,100,81,44,29.74,29.59,10,2,10,0.01
2013-2-27,33.6,30.9,28.9,33.6,30.8,28.9,100,99,95,29.60,29.03,21,5,21,0.23
2013-2-28,45.7,34.9,28.9,38.9,32.8,28.9,100,93,61,29.03,28.93,12,4,12,0.58
2013-3-1,38.2,32.9,29.1,31.5,28.0,23.6,100,84,57,29.06,28.92,18,4,18,0.00
2013-3-2,49.7,34.6,27.2,30.8,25.0,14.2,100,75,27,29.05,28.99,12,3,12,0.01
2013-3-3,47.1,33.4,27.6,33.8,27.5,23.0,100,81,44,29.02,28.93,19,4,19,0.06
2013-3-4,36.3,29.2,24.4,23.0,18.2,13.2,82,64,39,29.11,28.92,24,7,24,0.00
2013-3-5,46.7,35.0,26.2,34.3,23.6,18.1,99,66,32,29.48,29.11,19,5,19,0.00
2013-3-6,37.7,32.4,28.3,34.0,27.7,19.6,100,84,54,29.60,29.48,30,7,32,0.01
2013-3-7,34.4,29.6,27.5,29.2,24.0,18.3,100,81,57,29.57,29.44,24,7,24,0.00
2013-3-8,46.5,35.1,26.1,27.3,13.0,0.9,100,50,16,29.59,29.39,28,8,28,0.00
2013-3-9,54.2,39.7,26.0,27.4,6.0,-15.5,100,36,6,29.76,29.56,15,4,15,0.00
2013-3-10,50.3,35.4,23.6,31.1,22.9,12.1,100,69,23,29.80,29.67,11,3,14,0.00
2013-3-11,56.2,40.2,29.5,38.9,26.9,10.5,100,70,17,29.70,29.52,14,3,14,0.00
2013-3-12,46.6,42.5,38.1,46.6,42.5,38.1,100,100,100,29.54,29.11,20,5,23,0.64
2013-3-13,49.9,40.7,30.1,46.7,29.8,12.9,100,71,25,29.15,29.08,18,4,18,0.00
2013-3-14,39.6,28.9,15.4,26.0,9.4,-8.8,92,48,21,29.16,29.02,27,7,27,0.00
2013-3-15,37.1,24.6,12.8,28.2,-0.4,-15.8,100,39,11,29.17,28.99,19,6,21,0.00
2013-3-17,33.1,24.0,12.4,-6.8,-16.8,-25.1,21,15,10,29.68,29.38,24,8,29,0.00
2013-3-18,41.5,25.9,7.2,15.9,-14.2,-30.3,63,22,4,29.81,29.63,13,2,13,0.00
2013-3-19,30.6,26.5,20.9,30.6,25.7,15.9,100,97,63,29.63,29.07,16,7,25,0.00
2013-3-20,38.4,28.1,18.8,26.2,13.7,3.9,100,62,26,29.13,29.03,24,6,25,0.18
2013-3-21,48.2,31.6,19.3,16.4,4.6,-18.6,79,41,6,29.15,28.98,13,3,13,0.10
2013-3-22,46.6,31.4,21.4,18.3,6.1,-9.1,85,41,11,29.06,28.98,14,4,20,0.00
2013-3-23,40.4,30.8,22.7,17.6,12.0,1.8,73,48,21,29.10,28.94,33,9,33,0.00
2013-3-24,50.1,36.7,27.8,19.7,12.6,4.6,67,41,16,29.19,29.08,26,6,26,0.00
2013-3-25,45.1,34.9,25.9,22.8,18.5,15.0,78,53,30,29.17,28.97,18,4,18,0.00
2013-3-26,49.1,39.6,30.2,18.9,7.0,-5.4,60,29,11,29.15,28.96,21,6,21,0.00
2013-3-27,53.1,40.3,31.0,35.1,15.7,5.0,100,43,15,29.27,29.12,15,5,19,0.03
2013-3-28,50.4,39.6,32.1,37.1,26.9,9.8,100,67,20,29.40,29.26,14,4,14,0.02
2013-3-29,57.2,44.0,36.4,31.2,23.0,14.9,76,46,23,29.42,29.35,23,4,23,0.00
2013-3-30,55.1,42.9,33.7,25.7,10.3,-10.5,69,33,7,29.49,29.39,18,4,18,0.00
2013-3-31,58.7,44.3,25.4,35.1,4.9,-8.9,79,23,7,29.50,29.20,21,3,21,0.00
2013-4-1,57.9,41.6,28.9,42.8,30.0,-0.8,100,70,23,29.20,28.87,29,6,30,0.57
2013-4-2,36.7,30.2,22.9,3.0,-4.0,-11.3,33,23,13,29.23,29.10,30,8,30,0.00
2013-4-3,42.1,34.0,24.2,4.9,-6.9,-18.7,33,19,7,29.47,29.22,34,9,34,0.00
2013-4-4,53.3,41.2,25.7,6.5,-7.6,-21.1,37,15,4,29.61,29.36,24,6,24,0.00
2013-4-5,57.9,44.1,32.2,19.0,7.1,-6.8,53,25,7,29.36,29.05,25,6,25,0.00
2013-4-6,41.7,32.1,23.8,5.0,-15.5,-30.7,31,14,4,29.71,29.24,38,8,38,0.00
2013-4-7,54.9,40.7,23.8,31.4,4.9,-14.6,65,24,9,29.71,29.35,27,4,27,0.00
2013-4-8,65.2,50.1,40.4,40.0,26.7,11.5,97,48,13,29.52,29.31,23,4,23,0.00
2013-4-9,57.8,44.9,39.0,47.2,38.7,30.8,100,82,42,29.50,29.29,17,3,17,0.50
2013-4-10,61.2,48.7,40.9,50.3,41.2,31.0,100,80,33,29.39,29.28,9,2,14,0.58
2013-4-11,54.4,43.7,38.4,43.6,27.2,-0.2,100,62,18,29.58,29.27,14,3,14,0.07
2013-4-12,38.4,31.6,28.2,31.4,21.7,-0.3,100,74,22,29.63,29.26,16,2,16,0.01
2013-4-13,51.4,38.7,30.4,38.4,32.9,27.2,100,83,40,29.32,29.19,12,1,13,0.34
2013-4-14,54.1,42.7,33.1,38.8,28.7,15.2,100,64,22,29.59,29.29,24,5,25,0.01
2013-4-15,62.2,45.1,30.8,36.5,25.3,8.1,100,58,13,29.78,29.58,18,4,18,0.00
2013-4-16,64.2,49.3,32.7,53.3,38.2,25.5,100,72,25,29.78,29.39,21,5,29,0.02
2013-4-17,61.7,53.8,41.5,54.6,19.7,2.1,100,33,10,29.74,29.39,24,6,24,0.00
2013-4-18,57.2,47.0,33.8,29.2,13.4,4.7,50,27,13,29.87,29.55,22,4,22,0.00
2013-4-19,76.2,60.2,45.9,63.7,47.9,21.8,100,68,31,29.54,29.02,31,6,31,0.00
2013-4-20,63.6,49.4,37.3,63.6,28.4,5.0,100,54,18,29.58,29.00,32,8,32,0.39
2013-4-21,52.9,41.0,30.1,19.1,3.8,-13.2,60,25,6,30.08,29.57,20,5,20,0.00
2013-4-22,50.4,39.7,29.9,32.3,10.5,-5.0,100,36,11,30.18,30.02,20,4,20,0.00
2013-4-23,38.4,34.3,28.5,38.4,34.3,28.5,100,100,95,30.02,29.59,16,3,16,0.03
2013-4-24,75.0,52.3,38.4,52.9,43.3,35.5,100,78,24,29.59,29.17,19,6,19,0.01
2013-4-25,62.6,54.1,43.0,52.5,21.8,2.1,100,37,9,29.69,29.17,26,6,26,0.05
2013-4-26,61.9,50.4,36.5,24.0,12.5,4.5,48,23,11,29.83,29.69,16,3,16,0.00
2013-4-27,68.5,52.8,39.4,32.7,19.1,7.5,71,30,10,29.83,29.69,17,3,17,0.00
2013-4-28,71.7,54.4,36.9,35.3,21.3,10.0,92,34,12,29.75,29.64,19,3,19,0.00
2013-4-29,72.8,56.1,41.3,34.2,21.3,12.8,71,30,12,29.67,29.58,21,3,21,0.00
2013-4-30,76.8,59.4,43.0,25.5,12.3,-3.8,45,19,6,29.78,29.64,19,2,19,0.00
2013-5-1,80.2,59.7,39.3,17.4,5.7,-31.8,100,15,1,29.87,29.78,16,3,16,0.00
2013-5-2,85.8,56.5,40.1,31.1,20.4,3.3,70,29,6,29.92,29.80,21,2,21,0.00
2013-5-3,66.0,52.7,36.9,41.4,32.1,22.6,100,53,24,29.94,29.78,15,3,15,0.00
2013-5-4,69.2,51.0,34.2,47.6,31.3,11.3,100,58,12,29.79,29.69,15,3,15,0.00
2013-5-5,69.5,51.7,31.8,40.3,27.5,12.1,100,54,11,29.75,29.64,15,3,15,0.00
2013-5-6,74.1,55.6,35.6,48.2,32.8,2.4,100,57,6,29.69,29.55,15,3,15,0.00
2013-5-7,80.8,63.0,37.0,61.8,39.7,20.0,100,58,11,29.58,29.49,18,3,18,0.00
2013-5-8,79.7,64.6,52.7,66.3,53.5,41.5,100,74,29,29.64,29.50,22,4,22,0.09
2013-5-9,68.6,57.5,53.2,63.0,56.8,53.2,100,98,75,29.50,29.31,7,2,10,0.34
2013-5-10,81.8,63.9,53.6,64.4,53.0,37.2,100,76,21,29.36,29.30,11,2,11,0.01
2013-5-11,70.1,58.8,51.4,64.7,58.3,51.4,100,98,75,29.32,29.09,12,3,20,0.38
2013-5-12,71.0,59.0,44.8,59.5,43.1,12.8,100,64,21,29.17,28.96,24,4,24,0.02
2013-5-13,57.4,48.5,38.1,26.7,14.7,6.2,57,28,13,29.42,29.16,29,6,29,0.00
2013-5-14,61.6,49.4,35.2,36.0,16.0,0.8,96,34,9,29.44,29.35,21,4,21,0.00
2013-5-15,44.3,37.5,35.5,25.3,20.5,17.1,66,50,41,29.44,29.42,6,1,6,0.00
2013-5-16,79.0,65.8,47.6,57.7,27.6,1.6,100,37,5,29.23,29.01,29,6,29,0.00
2013-5-17,66.0,57.1,44.6,37.9,26.4,11.9,71,35,13,29.62,29.23,20,5,20,0.00
2013-5-18,80.2,57.7,41.0,47.7,34.1,12.9,100,52,11,29.72,29.62,17,3,17,0.00
2013-5-19,64.5,51.1,46.2,52.0,48.2,44.8,100,92,49,29.78,29.63,11,2,11,0.05
2013-5-20,77.4,61.0,47.8,63.2,54.2,47.8,100,83,41,29.63,29.35,14,3,20,0.15
2013-5-21,57.4,52.3,46.7,57.4,52.3,46.7,100,100,100,29.52,29.36,25,3,25,0.27
2013-5-22,62.1,51.4,47.6,57.1,51.0,47.6,100,99,79,29.43,29.30,11,2,11,0.53
2013-5-23,47.9,47.7,47.6,47.9,47.7,47.6,100,100,100,29.36,29.29,3,0,4,0.01
2013-6-15,77.8,70.9,57.5,36.7,23.9,14.9,45,20,10,29.36,29.30,17,4,20,0.00
2013-6-16,83.5,66.7,51.8,61.7,44.3,32.0,100,50,17,29.36,29.14,17,2,17,0.00
2013-6-17,84.8,70.4,55.9,62.6,52.4,35.0,100,62,18,29.32,29.18,20,4,20,0.02
2013-6-18,73.2,60.9,54.1,61.5,57.1,46.3,100,90,40,29.42,29.30,9,1,9,0.09
2013-6-19,80.3,65.1,49.0,58.5,39.1,21.1,100,52,13,29.59,29.36,14,3,14,0.01
2013-6-20,85.3,67.7,50.5,56.6,38.5,18.2,97,48,11,29.69,29.58,15,3,15,0.00
2013-6-21,86.2,71.4,55.9,55.2,41.1,22.6,90,42,10,29.68,29.62,13,2,13,0.00
2013-6-22,92.8,73.0,58.7,69.9,56.8,44.9,100,64,21,29.65,29.54,11,1,11,0.01
2013-6-23,90.9,71.9,63.0,76.6,67.2,62.5,100,88,40,29.58,29.41,28,2,28,1.50
2013-6-24,94.2,78.6,66.4,75.4,63.3,50.2,100,68,24,29.43,29.30,22,4,31,0.02
2013-6-25,94.0,79.3,67.1,70.1,62.7,49.3,100,66,23,29.35,29.16,29,4,29,0.19
2013-6-26,83.4,69.2,57.1,76.9,66.4,57.1,100,92,47,29.32,29.15,11,2,12,0.11
2013-6-27,72.3,62.3,55.6,69.2,61.6,55.6,100,98,86,29.31,29.23,10,2,10,0.32
2013-6-28,63.1,58.8,54.2,63.1,58.8,54.2,100,100,100,29.25,28.97,12,3,17,1.07
2013-6-29,85.6,72.3,62.1,76.8,65.3,55.1,100,83,37,29.14,28.97,18,3,18,0.01
2013-6-30,90.0,75.8,64.5,75.0,65.0,50.2,100,76,27,29.37,29.14,18,2,18,0.05
2013-7-1,84.3,72.5,66.1,75.3,70.4,65.9,100,94,55,29.52,29.37,9,2,9,0.35
2013-7-2,71.1,62.7,58.0,71.1,62.7,58.0,100,100,100,29.65,29.50,13,2,13,0.16
2013-7-3,92.8,73.3,58.5,74.5,63.7,58.5,100,78,35,29.64,29.53,15,2,15,0.25
2013-7-4,97.3,84.1,68.5,80.1,66.5,53.1,100,63,24,29.63,29.50,13,2,13,0.00
2013-7-5,96.7,85.4,71.6,77.9,64.2,53.4,100,57,26,29.58,29.44,16,3,17,0.00
2013-7-6,92.9,82.1,71.2,75.1,63.0,51.3,100,58,27,29.50,29.40,19,4,19,0.00
2013-7-7,93.4,78.0,68.2,73.9,63.6,50.7,100,68,24,29.45,29.36,12,2,12,0.06
2013-7-8,80.0,69.7,61.8,77.1,68.3,61.6,100,96,74,29.52,29.35,12,2,12,0.29
2013-7-9,78.3,66.7,61.5,70.9,65.4,61.5,100,96,68,29.56,29.50,9,1,9,0.01
2013-7-10,70.7,65.1,60.9,70.6,65.1,60.9,100,100,100,29.53,29.22,11,2,11,0.25
2013-7-11,88.8,75.9,67.5,76.4,58.0,0.0,100,86,35,29.41,29.19,10,1,10,0.01
2013-7-12,74.9,11.0,0.0,0.0,0.0,0.0,100,100,100,29.66,29.41,0,0,0,0.00
2013-7-13,82.4,18.3,0.0,66.5,15.6,0.0,100,93,33,29.76,29.66,7,0,7,0.00
2013-7-14,92.5,79.6,64.7,76.9,65.2,51.9,100,68,26,29.74,29.63,12,2,12,0.00
2013-7-15,97.0,83.7,69.7,75.1,59.9,48.8,100,53,20,29.65,29.52,11,2,11,0.00
2013-7-16,95.3,81.8,68.3,74.1,61.3,45.8,100,58,19,29.62,29.56,13,2,13,0.00
2013-7-17,102.3,84.6,69.0,79.9,62.1,48.5,100,59,19,29.62,29.39,34,2,34,0.84
2013-7-18,98.5,78.7,69.0,76.6,66.2,45.1,100,76,17,29.47,29.38,25,3,26,0.77
2013-7-19,94.7,83.2,68.0,77.5,65.5,54.5,100,63,27,29.39,29.12,24,4,24,0.15
2013-7-20,92.7,79.9,67.6,70.9,60.7,49.5,100,59,25,29.24,29.08,20,4,20,0.02
2013-7-21,86.3,72.3,59.6,66.9,55.0,44.9,100,63,25,29.45,29.23,13,2,13,0.00
2013-7-22,79.5,66.9,61.7,71.5,65.1,61.7,100,95,58,29.49,29.35,9,1,9,0.10
2013-7-23,70.2,64.3,60.5,70.2,64.3,60.4,100,100,100,29.36,29.00,10,2,10,1.82
2013-7-24,88.0,72.3,55.2,78.5,57.1,40.7,100,65,27,29.42,29.02,20,3,20,0.01
2013-7-25,77.5,63.7,51.5,61.2,49.0,37.1,100,66,26,29.55,29.41,12,2,12,0.02
2013-7-26,71.6,64.1,59.0,67.1,62.3,59.0,100,94,73,29.53,29.36,20,5,20,0.17
2013-7-27,88.7,74.6,60.1,68.1,55.1,32.8,100,62,15,29.47,29.38,14,2,14,0.00
2013-7-28,77.5,66.7,59.4,71.4,65.1,59.4,100,96,60,29.47,29.43,12,2,12,0.01
2013-7-29,83.3,68.3,61.5,71.2,63.6,56.5,100,88,42,29.49,29.40,16,2,17,0.21
2013-7-30,80.8,71.0,59.7,70.8,50.5,32.0,100,58,18,29.52,29.46,21,3,21,0.01
2013-7-31,87.8,72.3,58.0,65.5,50.0,25.6,100,58,11,29.55,29.46,11,2,11,0.00
2013-8-1,88.5,70.6,57.3,71.3,56.0,42.7,100,70,24,29.47,29.30,16,3,18,0.06
2013-8-2,83.5,70.6,61.5,72.6,54.7,33.7,100,66,18,29.30,29.18,17,3,17,0.49
2013-8-3,80.5,68.5,59.3,62.7,50.9,36.4,100,61,21,29.27,29.18,22,3,22,0.46
2013-8-4,81.1,67.9,55.7,60.5,48.7,36.1,100,58,22,29.29,29.19,18,3,18,0.00
2013-8-5,75.0,63.9,51.4,57.9,37.4,18.4,100,47,14,29.47,29.27,18,4,19,0.00
2013-8-6,84.7,68.3,51.0,50.7,38.5,23.1,91,42,12,29.58,29.46,11,2,11,0.00
2013-8-7,84.0,68.6,51.1,59.9,46.4,35.1,100,54,20,29.61,29.53,14,2,14,0.00
2013-8-8,84.7,70.1,58.4,71.4,62.7,54.8,100,81,40,29.54,29.42,14,3,14,0.07
2013-8-9,71.2,69.0,67.3,71.1,69.0,67.3,100,100,100,29.45,29.16,24,3,24,0.83
2013-8-10,82.6,71.5,55.0,73.5,47.9,26.2,100,54,15,29.43,29.19,21,4,21,0.01
2013-8-11,81.5,68.1,52.2,56.3,42.9,29.4,100,49,16,29.48,29.41,13,3,14,0.00
2013-8-12,83.5,71.2,56.7,59.5,46.8,30.9,96,50,16,29.44,29.33,16,2,16,0.00
2013-8-13,77.1,67.6,59.1,66.5,61.2,53.9,100,82,48,29.34,29.11,14,2,14,0.00
2013-8-14,75.7,66.0,55.1,66.0,49.6,34.9,100,63,25,29.34,29.07,27,5,27,0.00
2013-8-15,76.3,65.1,50.7,54.1,42.8,29.6,100,54,20,29.52,29.33,20,4,20,0.00
2013-8-16,82.3,68.1,53.6,59.0,45.4,30.2,100,54,17,29.60,29.50,12,2,12,0.00
2013-8-17,86.0,69.3,53.4,63.4,47.7,31.4,100,59,17,29.70,29.60,15,2,15,0.00
2013-8-18,88.3,70.0,55.1,67.6,53.5,39.6,100,65,22,29.70,29.49,12,2,12,0.00
2013-8-19,85.0,72.7,58.5,63.3,52.9,41.8,100,58,24,29.49,29.35,17,3,17,0.00
2013-8-20,91.2,75.8,62.1,65.0,53.3,39.2,100,56,19,29.53,29.40,14,2,14,0.00
2013-8-21,96.3,78.4,63.3,65.3,54.7,41.4,100,54,18,29.57,29.44,13,2,13,0.00
2013-8-22,93.3,78.4,64.2,69.7,56.3,41.1,99,56,19,29.45,29.23,17,3,17,0.00
2013-8-23,80.3,70.2,57.7,66.2,44.4,25.8,94,46,15,29.58,29.23,18,5,18,0.00
2013-8-24,82.0,67.0,49.2,53.7,38.0,19.5,100,45,11,29.75,29.58,11,2,11,0.00
2013-8-25,88.8,70.4,53.5,60.5,44.9,26.9,100,52,14,29.79,29.58,14,2,14,0.00
2013-8-26,82.5,69.7,59.4,70.5,60.7,49.1,100,77,38,29.59,29.30,14,2,14,0.28
2013-8-27,89.8,74.9,63.4,73.5,59.3,44.2,100,68,21,29.34,29.28,9,1,9,0.00
2013-8-28,94.6,74.8,61.8,71.9,59.4,47.3,100,68,23,29.45,29.30,12,2,12,0.35
2013-8-29,65.7,62.4,59.5,64.1,62.1,59.5,100,99,90,29.53,29.41,17,2,17,0.08
2013-8-30,85.1,70.5,58.3,69.8,59.7,51.6,100,75,32,29.46,29.23,14,2,14,0.06
2013-8-31,87.3,75.1,68.0,74.9,67.6,53.1,100,82,33,29.26,29.21,16,2,16,0.00
2013-9-1,90.9,76.7,67.6,73.7,66.0,53.0,100,76,28,29.33,29.21,12,2,12,0.00
2013-9-2,70.0,68.0,66.9,70.0,68.0,66.9,100,100,100,29.32,29.17,12,2,12,0.65
2013-9-3,85.7,71.8,61.7,75.0,62.9,49.4,100,79,29,29.21,29.13,13,2,13,0.01
2013-9-4,79.6,68.6,57.6,64.1,49.6,33.1,100,60,21,29.33,29.20,24,4,24,0.00
2013-9-5,72.0,60.3,46.0,60.7,44.4,18.1,100,66,15,29.57,29.29,17,2,17,0.07
2013-9-6,70.7,57.6,42.5,45.7,33.3,17.9,100,50,15,29.65,29.47,14,2,14,0.00
2013-9-7,80.0,65.5,49.3,46.1,37.1,26.2,81,39,17,29.48,29.24,19,3,19,0.00
2013-9-8,70.3,59.6,45.8,53.5,37.8,22.3,89,47,22,29.50,29.15,23,5,23,0.01
2013-9-9,70.0,57.9,41.9,49.4,34.6,20.3,100,50,16,29.63,29.50,14,3,14,0.00
2013-9-10,72.7,61.2,48.6,70.1,59.9,44.4,100,96,69,29.54,29.44,11,1,11,0.10
2013-9-11,94.0,80.4,66.5,80.2,64.9,53.3,100,68,27,29.48,29.34,34,4,34,0.36
2013-9-12,85.5,69.8,64.2,76.9,67.6,60.5,100,95,44,29.39,29.10,19,2,19,1.09
2013-9-13,74.0,62.9,54.4,69.7,62.4,54.3,100,98,71,29.16,29.01,13,2,21,1.78
2013-9-14,74.0,58.2,47.4,60.7,50.4,39.7,100,80,33,29.45,29.16,16,3,16,0.03
2013-9-15,72.7,59.3,43.8,56.2,41.1,26.0,100,62,19,29.55,29.42,17,2,17,0.00
2013-9-16,67.5,55.5,41.0,57.2,43.5,25.0,100,68,27,29.67,29.40,18,4,18,0.00
2013-9-17,66.2,52.3,38.5,44.2,29.5,18.1,87,48,20,29.83,29.67,14,4,14,0.00
2013-9-18,75.0,60.2,43.4,50.2,35.0,19.5,100,50,13,29.72,29.52,9,2,11,0.00
2013-9-19,80.6,64.8,49.3,53.0,41.9,28.2,100,53,17,29.55,29.43,11,2,12,0.00
2013-9-20,82.5,64.0,49.8,58.8,45.8,31.8,100,63,18,29.53,29.43,12,2,12,0.00
2013-9-21,72.4,58.6,45.7,63.5,54.3,45.0,100,89,43,29.44,29.15,20,3,20,0.01
2013-9-22,73.8,61.5,46.7,64.4,51.3,34.7,100,75,28,29.21,29.01,13,5,21,0.62
2013-9-23,60.2,50.2,40.0,41.5,34.6,26.6,99,61,30,29.38,29.20,19,4,19,0.00
2013-9-24,63.7,50.7,37.8,45.6,35.6,25.2,100,63,26,29.35,29.23,20,3,20,0.00
2013-9-25,64.1,52.5,41.3,49.6,41.6,32.1,100,71,32,29.41,29.27,13,3,14,0.00
2013-9-26,69.3,55.7,41.9,51.8,42.1,31.1,100,68,28,29.56,29.41,12,2,12,0.00
2013-9-27,71.5,58.5,51.7,53.3,47.7,35.9,100,74,28,29.68,29.55,9,2,9,0.00
2013-9-28,73.7,60.1,48.5,55.2,45.5,30.6,100,69,22,29.76,29.68,12,2,12,0.00
2013-9-29,74.0,57.2,44.6,65.1,42.9,31.0,100,69,24,29.68,29.54,11,2,11,0.01
2013-9-30,71.0,57.1,40.7,55.2,43.6,30.7,100,70,24,29.54,29.38,10,2,10,0.01
2013-10-1,76.4,62.2,46.9,59.2,46.1,31.3,100,65,21,29.39,29.26,14,2,14,0.01
2013-10-2,78.7,66.9,56.4,58.1,49.9,41.0,100,61,27,29.34,29.22,25,4,25,0.00
2013-10-3,76.8,64.4,52.6,57.3,41.1,26.1,100,52,17,29.49,29.33,17,2,17,0.00
2013-10-4,78.4,61.2,48.3,56.1,44.7,29.0,100,64,19,29.52,29.46,6,1,6,0.00
2013-10-5,68.2,59.1,53.9,55.7,42.0,30.3,100,59,27,29.56,29.49,9,1,9,0.00
2013-10-6,54.7,49.9,47.3,54.7,42.9,26.6,100,80,42,29.69,29.56,12,2,12,0.21
2013-10-7,68.0,56.4,49.5,68.0,56.3,49.5,100,100,98,29.60,29.20,18,4,28,0.71
2013-10-8,60.9,53.0,39.0,55.4,35.3,19.7,100,59,21,29.81,29.29,20,4,20,0.00
2013-10-9,65.0,49.7,37.6,46.2,34.8,21.3,100,68,19,29.91,29.79,9,2,9,0.00
2013-10-10,68.8,51.7,38.5,56.1,39.2,15.4,100,73,14,29.79,29.61,9,1,9,0.00
2013-10-11,69.4,55.2,46.2,53.2,44.4,30.7,100,75,25,29.61,29.56,10,2,10,0.00
2013-10-12,53.6,50.2,41.4,53.4,49.7,41.4,100,98,93,29.85,29.61,12,3,12,0.00
2013-10-13,58.4,47.9,40.2,52.4,43.2,36.4,100,87,44,29.89,29.82,7,1,7,0.01
2013-10-14,68.3,54.2,40.8,52.1,39.3,31.0,100,65,27,29.82,29.65,11,2,11,0.00
2013-10-15,64.5,56.4,49.1,54.7,49.1,39.4,100,79,46,29.71,29.62,11,2,11,0.00
2013-10-16,66.5,53.6,47.7,53.8,48.1,33.6,100,86,32,29.62,29.32,11,1,11,0.00
2013-10-17,72.0,58.4,49.2,58.5,44.3,31.0,100,68,23,29.33,29.13,16,2,16,0.00
2013-10-18,66.1,55.9,48.6,59.2,42.8,26.6,100,67,29,29.29,29.02,26,4,26,0.47
2013-10-19,65.0,53.8,40.3,41.6,31.6,22.5,83,47,21,29.37,29.17,15,3,15,0.00
2013-10-20,58.4,51.0,40.0,50.2,29.0,10.7,100,51,17,29.41,29.09,25,4,25,0.01
2013-10-21,63.4,51.1,37.4,47.5,32.4,21.7,100,57,21,29.51,29.39,13,2,13,0.00
2013-10-22,56.6,49.0,41.7,54.0,45.0,35.7,100,87,60,29.40,29.13,18,3,18,0.01
2013-10-23,58.6,45.6,33.5,37.8,24.9,11.9,98,50,17,29.20,29.00,11,2,11,0.00
2013-10-24,51.1,42.9,34.3,32.1,19.6,10.1,87,43,21,29.27,29.04,29,5,29,0.00
2013-10-25,48.9,38.5,30.8,34.6,21.0,9.5,100,55,23,29.53,29.26,23,4,23,0.00
2013-10-26,50.4,40.4,28.8,29.4,18.4,8.0,88,46,19,29.54,29.28,26,4,26,0.00
2013-10-27,55.3,44.4,34.6,35.1,21.8,11.7,85,44,21,29.45,29.21,23,4,23,0.00
2013-10-28,54.7,40.4,30.2,29.7,18.4,6.9,79,45,22,29.75,29.44,27,5,27,0.00
2013-10-29,48.7,34.6,21.0,28.2,9.2,-0.9,100,43,14,29.86,29.74,9,1,9,0.00
2013-10-30,47.6,37.2,28.5,31.6,14.3,-0.1,90,42,25,29.76,29.59,17,2,17,0.00
2013-10-31,56.7,43.0,31.1,56.7,42.7,31.1,100,99,86,29.64,29.19,20,3,20,0.28
2013-11-1,66.3,59.8,54.8,64.0,53.8,31.6,100,83,39,29.19,28.81,41,8,41,0.20
2013-11-2,62.6,53.3,44.0,48.1,34.7,24.4,100,55,24,29.16,29.02,16,4,16,0.07
2013-11-3,46.7,37.7,27.9,46.7,15.0,-3.5,100,45,14,29.83,29.16,16,5,16,0.00
2013-11-4,40.7,30.7,24.1,18.1,-1.0,-7.9,74,27,13,30.11,29.83,15,3,15,0.00
2013-11-5,50.2,36.2,23.6,31.8,20.9,9.5,100,63,21,30.11,29.90,10,2,12,0.00
2013-11-6,56.9,46.4,35.6,44.8,33.1,26.0,94,62,34,29.90,29.40,19,4,19,0.00
2013-11-7,56.0,48.2,35.4,56.0,44.8,18.2,100,89,47,29.41,29.09,22,5,22,0.16
2013-11-8,45.6,36.6,28.0,20.1,12.7,6.2,67,38,22,29.43,29.20,22,6,22,0.00
2013-11-9,42.6,36.0,30.2,16.7,7.4,3.3,48,30,21,29.55,29.42,23,4,23,0.00
2013-11-10,42.9,37.5,32.0,41.6,34.7,17.0,100,90,49,29.44,29.13,20,2,20,0.12
2013-11-11,45.6,38.9,33.9,32.3,19.4,10.6,82,48,24,29.46,29.20,28,5,28,0.00
2013-11-12,39.7,29.8,23.4,25.9,7.6,-0.1,59,39,27,29.53,29.25,25,6,25,0.00
2013-11-13,31.1,25.4,18.1,8.5,-0.4,-7.1,63,34,20,29.64,29.48,21,5,21,0.00
2013-11-14,46.1,35.4,25.2,16.3,9.8,-0.6,45,35,19,29.50,29.40,24,4,24,0.00
2013-11-15,53.8,42.6,32.8,13.0,0.7,-6.7,40,19,8,29.59,29.49,16,4,16,0.00
2013-11-16,58.8,43.8,35.1,22.2,6.5,-7.5,59,24,7,29.75,29.57,11,2,11,0.00
2013-11-17,44.5,38.9,30.8,44.5,38.2,23.7,100,97,63,29.74,29.30,4,1,5,0.18
2013-11-18,61.9,52.5,43.7,58.1,35.7,16.5,100,61,22,29.31,28.92,23,5,23,0.37
2013-11-19,43.6,33.8,26.3,16.9,3.9,-3.9,45,28,18,29.65,29.02,31,8,31,0.00
2013-11-20,39.3,29.7,23.7,3.0,-3.9,-18.7,40,24,9,30.02,29.64,21,5,21,0.00
2013-11-21,45.3,33.9,21.3,17.5,-3.8,-32.1,75,27,3,30.02,29.74,13,2,13,0.00
2013-11-22,38.7,35.8,32.5,36.8,27.9,4.4,100,77,31,29.75,29.18,12,1,12,0.04
2013-11-23,39.8,33.7,23.7,39.8,16.7,-2.5,100,58,19,29.28,29.12,31,6,31,0.01
2013-11-24,23.6,18.4,13.7,7.3,-10.0,-17.2,52,28,19,29.49,29.12,38,11,38,0.00
2013-11-25,27.0,19.6,12.6,-5.0,-16.2,-29.1,30,20,7,29.69,29.48,21,6,31,0.00
2013-11-26,33.4,28.6,23.6,30.8,16.6,-5.4,100,65,27,29.70,29.52,15,2,15,0.01
2013-11-27,54.7,41.5,30.8,54.7,41.5,29.7,100,100,93,29.52,28.61,28,5,28,2.22
2013-11-28,33.2,25.2,16.2,29.8,2.3,-15.6,91,40,16,29.78,28.74,36,8,36,0.00
2013-11-29,27.5,19.1,13.4,1.4,-5.5,-13.2,57,35,17,30.13,29.78,15,4,15,0.00
2013-11-30,29.2,20.6,7.8,16.4,5.2,-10.0,100,57,19,30.19,29.82,16,3,16,0.00
2013-12-1,35.1,31.3,26.4,35.1,29.0,12.1,100,92,54,29.82,29.45,13,3,13,0.24
2013-12-2,35.3,33.3,31.4,35.3,33.3,31.4,100,100,100,29.46,29.33,12,4,13,0.02
2013-12-3,40.9,34.1,27.4,40.5,34.1,27.4,100,100,95,29.33,29.27,7,3,9,0.00
2013-12-4,39.8,32.6,25.9,29.4,21.1,14.4,100,65,36,29.60,29.31,12,3,15,0.00
2013-12-5,36.9,31.6,25.6,36.7,30.3,24.3,100,95,80,29.64,29.31,7,2,8,0.06
2013-12-6,45.9,40.8,32.4,45.9,31.4,12.0,100,74,33,29.54,29.25,19,4,19,0.04
2013-12-7,35.4,29.7,21.1,30.7,8.5,-6.0,100,47,20,29.82,29.47,25,5,25,0.00
2013-12-8,28.9,23.2,19.1,2.9,-4.8,-11.0,42,29,18,29.95,29.81,16,3,16,0.00
2013-12-9,26.3,22.9,20.1,26.3,15.3,-6.3,100,78,27,29.91,29.25,13,4,13,0.00
2013-12-10,31.6,26.7,18.0,30.3,22.7,0.4,100,87,40,29.32,29.14,26,4,26,0.00
2013-12-11,29.9,21.0,13.6,18.2,3.8,-4.0,97,50,24,29.53,29.32,18,4,20,0.00
2013-12-12,19.5,13.3,7.1,18.3,-10.9,-25.0,97,37,13,29.62,29.39,25,5,25,0.00
2013-12-13,26.7,12.8,0.3,5.7,-9.7,-24.9,65,37,19,29.77,29.30,26,5,26,0.00
2013-12-14,17.1,7.0,-1.4,3.3,-17.4,-27.2,83,36,13,29.98,29.69,14,3,14,0.00
2013-12-15,21.6,14.9,7.2,19.5,11.7,3.2,97,87,67,29.69,28.82,28,7,28,0.00
2013-12-16,26.7,16.8,5.2,14.6,-3.2,-18.9,99,48,15,29.57,29.07,29,5,29,0.00
2013-12-17,13.8,6.2,-5.7,8.1,-7.2,-20.8,90,58,24,29.65,29.39,15,3,15,0.00
2013-12-18,34.4,21.2,10.6,19.0,11.7,2.4,96,71,27,29.41,29.25,21,5,21,0.06
2013-12-19,36.5,27.5,19.9,19.8,15.5,7.2,95,63,30,29.49,29.32,16,3,16,0.00
2013-12-20,42.7,35.8,30.1,33.8,23.8,17.2,92,63,36,29.52,29.31,9,1,9,0.03
2013-12-21,48.8,40.7,32.9,46.2,38.6,32.9,100,93,62,29.35,29.25,10,1,10,0.08
2013-12-22,43.9,29.7,25.3,43.9,29.7,25.3,100,100,100,29.48,29.25,15,3,15,0.23
2013-12-23,33.1,29.3,25.5,33.0,29.3,25.5,100,100,100,29.52,29.37,15,2,15,0.29
2013-12-24,32.2,25.3,13.9,32.2,18.4,3.1,100,76,45,29.57,29.44,16,4,16,0.04
2013-12-25,20.0,11.0,2.9,4.2,-4.2,-13.0,76,51,30,29.92,29.56,24,3,24,0.00
2013-12-26,23.4,17.4,7.7,21.2,12.1,-3.9,100,81,47,29.88,29.47,18,2,18,0.00
2013-12-27,32.7,23.6,17.3,22.4,15.8,4.8,100,75,33,29.60,29.53,16,3,16,0.09
2013-12-28,39.2,29.6,19.9,30.9,22.9,18.1,97,77,46,29.57,29.35,20,3,23,0.06
2013-12-29,43.7,33.2,29.0,33.2,30.0,22.1,100,90,43,29.42,28.93,11,1,11,0.24
2013-12-30,35.2,24.3,3.0,34.7,17.0,-8.5,100,76,46,29.54,28.91,27,4,27,0.17
2013-12-31,20.5,7.3,-2.3,3.6,-7.8,-39.1,84,52,23,29.54,29.39,9,2,9,0.00
2014-1-1,21.9,10.5,6.2,8.3,3.3,-5.7,97,77,29,29.70,29.50,13,4,13,0.00
2014-1-2,-3.6,-5.9,-6.5,-11.9,-13.7,-14.6,69,68,67,29.54,29.32,24,8,24,0.00